Time,TemperatureF,DewpointF,PressureIn,WindDirection,WindDirectionDegrees,WindSpeedMPH,WindSpeedGustMPH,Humidity,HourlyPrecipIn,Conditions,Clouds,dailyrainin,SoftwareType,DateUTC
2013-03-07 13:23:00,44.1,26.0,30.13,WNW,292,13.0,20.0,50,0.00,,,0.00,weatherlink.com 1.10,2013-03-07 18:23:00,
2013-03-07 13:25:00,44.1,26.0,30.12,NW,311,5.0,20.0,49,0.00,,,0.00,weatherlink.com 1.10,2013-03-07 18:25:00,
2013-03-07 13:40:00,43.8,27.0,30.12,NW,311,11.0,16.0,51,0.00,,,0.00,weatherlink.com 1.10,2013-03-07 18:40:00,
2013-03-07 13:55:00,43.6,26.0,30.12,WNW,283,12.0,26.0,51,0.00,,,0.00,weatherlink.com 1.10,2013-03-07 18:55:00,
2013-03-07 14:11:00,43.8,27.0,30.12,West,275,12.0,22.0,52,0.00,,,0.00,weatherlink.com 1.10,2013-03-07 19:11:00,
2013-03-07 14:25:00,43.3,26.0,30.12,West,278,14.0,22.0,51,0.00,,,0.00,weatherlink.com 1.10,2013-03-07 19:25:00,
2013-03-07 14:40:00,42.9,26.0,30.12,North,355,10.0,14.0,52,0.00,,,0.00,weatherlink.com 1.10,2013-03-07 19:40:00,
2013-03-07 14:55:00,42.7,26.0,30.14,West,280,11.0,18.0,51,0.00,,,0.00,weatherlink.com 1.10,2013-03-07 19:55:00,
2013-03-07 15:11:00,42.6,26.0,30.14,NW,309,9.0,15.0,52,0.00,,,0.00,weatherlink.com 1.10,2013-03-07 20:11:00,
2013-03-07 15:25:00,42.9,25.0,30.14,WNW,288,15.0,23.0,50,0.00,,,0.00,weatherlink.com 1.10,2013-03-07 20:25:00,
2013-03-07 15:41:00,42.7,26.0,30.14,WNW,298,10.0,19.0,51,0.00,,,0.00,weatherlink.com 1.10,2013-03-07 20:41:00,
2013-03-07 15:55:00,42.5,25.0,30.14,WNW,285,12.0,23.0,51,0.00,,,0.00,weatherlink.com 1.10,2013-03-07 20:55:00,
2013-03-07 16:11:00,43.1,25.0,30.14,NW,317,9.0,22.0,50,0.00,,,0.00,weatherlink.com 1.10,2013-03-07 21:11:00,
2013-03-07 16:25:00,43.2,26.0,30.14,WSW,246,6.0,29.0,51,0.00,,,0.00,weatherlink.com 1.10,2013-03-07 21:25:00,
2013-03-07 16:41:00,43.2,26.0,30.14,NW,320,6.0,19.0,50,0.00,,,0.00,weatherlink.com 1.10,2013-03-07 21:41:00,
2013-03-07 17:10:00,42.5,26.0,30.14,NW,320,6.0,16.0,52,0.00,,,0.00,weatherlink.com 1.10,2013-03-07 22:10:00,
2013-03-07 17:25:00,42.6,25.0,30.15,NNW,336,2.0,17.0,51,0.00,,,0.00,weatherlink.com 1.10,2013-03-07 22:25:00,
2013-03-07 17:40:00,41.9,26.0,30.15,West,275,12.0,20.0,53,0.00,,,0.00,weatherlink.com 1.10,2013-03-07 22:40:00,
2013-03-07 17:55:00,41.4,26.0,30.16,NW,304,10.0,10.0,54,0.00,,,0.00,weatherlink.com 1.10,2013-03-07 22:55:00,
2013-03-07 18:10:00,41.4,26.0,30.16,West,267,10.0,14.0,54,0.00,,,0.00,weatherlink.com 1.10,2013-03-07 23:10:00,
2013-03-07 18:25:00,41.3,26.0,30.17,NW,315,5.0,11.0,54,0.00,,,0.00,weatherlink.com 1.10,2013-03-07 23:25:00,
2013-03-07 18:40:00,41.2,26.0,30.17,West,267,8.0,20.0,54,0.00,,,0.00,weatherlink.com 1.10,2013-03-07 23:40:00,
2013-03-07 18:55:00,41.1,25.0,30.18,WNW,285,6.0,11.0,54,0.00,,,0.00,weatherlink.com 1.10,2013-03-07 23:55:00,
2013-03-07 19:10:00,41.2,25.0,30.17,SE,126,6.0,15.0,53,0.00,,,0.00,weatherlink.com 1.10,2013-03-08 00:10:00,
2013-03-07 19:25:00,41.1,24.0,30.17,WNW,282,2.0,9.0,52,0.00,,,0.00,weatherlink.com 1.10,2013-03-08 00:25:00,
2013-03-07 19:40:00,40.8,25.0,30.18,ESE,121,7.0,11.0,54,0.00,,,0.00,weatherlink.com 1.10,2013-03-08 00:40:00,
2013-03-07 19:55:00,40.7,25.0,30.18,NNW,342,3.0,15.0,54,0.00,,,0.00,weatherlink.com 1.10,2013-03-08 00:55:00,
2013-03-07 20:10:00,40.6,25.0,30.18,WNW,294,11.0,13.0,55,0.00,,,0.00,weatherlink.com 1.10,2013-03-08 01:10:00,
2013-03-07 20:25:00,40.7,25.0,30.18,NE,40,5.0,17.0,54,0.00,,,0.00,weatherlink.com 1.10,2013-03-08 01:25:00,
2013-03-07 20:40:00,40.2,25.0,30.18,WNW,294,7.0,11.0,56,0.00,,,0.00,weatherlink.com 1.10,2013-03-08 01:40:00,
2013-03-07 20:55:00,40.2,26.0,30.18,NW,323,0.0,8.0,57,0.00,,,0.00,weatherlink.com 1.10,2013-03-08 01:55:00,
2013-03-07 21:10:00,40.0,26.0,30.18,NNE,15,0.0,9.0,57,0.00,,,0.00,weatherlink.com 1.10,2013-03-08 02:10:00,
2013-03-07 21:25:00,39.7,26.0,30.19,NE,52,0.0,6.0,59,0.00,,,0.00,weatherlink.com 1.10,2013-03-08 02:25:00,
2013-03-07 21:40:00,39.7,26.0,30.19,WNW,296,5.0,8.0,59,0.00,,,0.00,weatherlink.com 1.10,2013-03-08 02:40:00,
2013-03-07 21:55:00,39.8,26.0,30.19,WSW,250,3.0,10.0,59,0.00,,,0.00,weatherlink.com 1.10,2013-03-08 02:55:00,
2013-03-07 22:10:00,39.6,27.0,30.18,West,274,14.0,21.0,60,0.00,,,0.00,weatherlink.com 1.10,2013-03-08 03:10:00,
2013-03-07 22:25:00,39.6,27.0,30.18,West,279,7.0,19.0,60,0.00,,,0.00,weatherlink.com 1.10,2013-03-08 03:25:00,
2013-03-07 22:40:00,39.5,26.0,30.19,West,279,5.0,14.0,59,0.00,,,0.00,weatherlink.com 1.10,2013-03-08 03:40:00,
2013-03-07 22:55:00,39.0,26.0,30.19,West,274,10.0,14.0,61,0.00,,,0.00,weatherlink.com 1.10,2013-03-08 03:55:00,
2013-03-07 23:10:00,38.8,26.0,30.19,WSW,258,8.0,11.0,60,0.00,,,0.00,weatherlink.com 1.10,2013-03-08 04:10:00,
2013-03-07 23:25:00,38.5,26.0,30.19,WNW,283,5.0,10.0,61,0.00,,,0.00,weatherlink.com 1.10,2013-03-08 04:25:00,
2013-03-07 23:40:00,37.3,26.0,30.20,West,265,5.0,10.0,64,0.00,,,0.00,weatherlink.com 1.10,2013-03-08 04:40:00,
2013-03-07 23:55:00,38.0,26.0,30.20,West,277,6.0,11.0,63,0.00,,,0.00,weatherlink.com 1.10,2013-03-08 04:55:00,